| time (UTC) | temp F | wind direction | speed knots | gust knots | rain 1hr in | rain 24hr in | rain mn in | humidity % | barometer mb |
| 20260510054831 | 53 | 114 | 1.7 | 6.1 | 0.00 | 0.25 | 0.00 | 86 | |
| 20260510054331 | 53 | 162 | 0.9 | 3.5 | 0.00 | 0.25 | 0.00 | 86 | |
| 20260510053830 | 53 | 183 | 0.0 | 3.5 | 0.00 | 0.25 | 0.00 | 86 | |
| 20260510053330 | 53 | 220 | 0.9 | 3.5 | 0.00 | 0.25 | 0.00 | 86 | |
| 20260510052829 | 53 | 255 | 0.0 | 3.5 | 0.00 | 0.25 | 0.25 | 86 | |
| 20260510052328 | 53 | 210 | 0.0 | 3.5 | 0.00 | 0.25 | 0.25 | 86 | |
| 20260510051828 | 53 | 216 | 0.9 | 3.5 | 0.00 | 0.25 | 0.25 | 86 | |
| 20260510051326 | 53 | 215 | 0.0 | 4.3 | 0.00 | 0.25 | 0.25 | 86 | |
| 20260510050826 | 53 | 96 | 0.9 | 5.2 | 0.00 | 0.25 | 0.25 | 86 | |
| 20260510050326 | 53 | 262 | 1.7 | 5.2 | 0.00 | 0.25 | 0.25 | 86 | |
| 20260510045821 | 53 | 170 | 0.9 | 5.2 | 0.00 | 0.25 | 0.25 | 85 | |
| 20260510045321 | 53 | 197 | 1.7 | 5.2 | 0.00 | 0.25 | 0.25 | 85 | |
| 20260510044821 | 53 | 236 | 1.7 | 5.2 | 0.00 | 0.25 | 0.25 | 86 | |
| 20260510044321 | 53 | 248 | 2.6 | 5.2 | 0.00 | 0.25 | 0.25 | 87 | |
| 20260510043822 | 52 | 246 | 1.7 | 4.3 | 0.00 | 0.25 | 0.25 | 86 | |
| 20260510043323 | 52 | 253 | 0.0 | 2.6 | 0.00 | 0.25 | 0.25 | 86 | |
| 20260510042822 | 52 | 256 | 0.0 | 1.7 | 0.00 | 0.25 | 0.25 | 86 | |
| 20260510042321 | 52 | 257 | 0.0 | 1.7 | 0.00 | 0.25 | 0.25 | 86 | |
| 20260510041820 | 52 | 237 | 0.0 | 1.7 | 0.00 | 0.25 | 0.25 | 87 | |
| 20260510041319 | 52 | 221 | 0.0 | 6.1 | 0.00 | 0.25 | 0.25 | 87 | |
| 20260510040819 | 52 | 225 | 2.6 | 6.1 | 0.00 | 0.25 | 0.25 | 88 | |
| 20260510040322 | 52 | 260 | 0.0 | 0.0 | 0.00 | 0.25 | 0.25 | 88 | |
| 20260510035822 | 52 | 266 | 0.0 | 0.0 | 0.00 | 0.25 | 0.25 | 88 | |
| 20260510035322 | 52 | 266 | 0.0 | 0.0 | 0.00 | 0.25 | 0.25 | 87 | |
| 20260510034823 | 52 | 266 | 0.0 | 0.0 | 0.00 | 0.25 | 0.25 | 88 | |
| 20260510034342 | 52 | 158 | 0.0 | 0.0 | 0.00 | 0.25 | 0.25 | 87 | |
| 20260510033822 | 52 | 158 | 0.0 | 0.0 | 0.00 | 0.25 | 0.25 | 88 | |
| 20260510033322 | 52 | 233 | 0.0 | 0.0 | 0.00 | 0.25 | 0.25 | 88 | |
| 20260510032823 | 52 | 278 | 0.0 | 0.0 | 0.00 | 0.25 | 0.25 | 88 | |
| 20260510032322 | 52 | 297 | 0.0 | 1.7 | 0.00 | 0.25 | 0.25 | 87 | |
| 20260510031823 | 52 | 302 | 0.0 | 7.0 | 0.00 | 0.25 | 0.25 | 87 | |
| 20260510031322 | 52 | 260 | 2.6 | 7.0 | 0.00 | 0.25 | 0.25 | 88 | |
| 20260510030842 | 52 | 247 | 0.9 | 3.5 | 0.00 | 0.25 | 0.25 | 88 | |
| 20260510030341 | 51 | 359 | 0.0 | 0.0 | 0.00 | 0.25 | 0.25 | 88 | |
| 20260510025840 | 51 | 359 | 0.0 | 0.0 | 0.00 | 0.25 | 0.25 | 88 | |
| 20260510025316 | 52 | 324 | 0.0 | 2.6 | 0.00 | 0.25 | 0.25 | 87 | |
| 20260510024818 | 52 | 324 | 0.9 | 2.6 | 0.00 | 0.25 | 0.25 | 88 | |
| 20260510024334 | 52 | 329 | 0.0 | 5.2 | 0.00 | 0.25 | 0.25 | 88 | |
| 20260510023854 | 51 | 341 | 0.0 | 0.0 | 0.00 | 0.25 | 0.25 | 88 | |
| 20260510023333 | 52 | 309 | 0.0 | 0.0 | 0.00 | 0.25 | 0.25 | 88 | |
| 20260510022833 | 52 | 322 | 0.0 | 0.0 | 0.00 | 0.25 | 0.25 | 87 | |
| 20260510022333 | 52 | 342 | 0.0 | 0.0 | 0.00 | 0.25 | 0.25 | 87 | |
| 20260510021833 | 52 | 342 | 0.0 | 0.0 | 0.00 | 0.25 | 0.25 | 87 | |
| 20260510021353 | 52 | 345 | 0.0 | 0.0 | 0.00 | 0.25 | 0.25 | 86 | |
| 20260510020832 | 52 | 345 | 0.0 | 0.0 | 0.00 | 0.25 | 0.25 | 85 | |
| 20260510020332 | 53 | 344 | 0.0 | 0.0 | 0.00 | 0.25 | 0.25 | 85 | |
| 20260510015830 | 53 | 345 | 0.0 | 0.0 | 0.00 | 0.25 | 0.25 | 85 | |
| 20260510015330 | 53 | 31 | 0.0 | 0.0 | 0.00 | 0.25 | 0.25 | 84 | |
| 20260510014830 | 53 | 54 | 0.0 | 0.0 | 0.00 | 0.25 | 0.25 | 84 | |
| 20260510014350 | 53 | 108 | 0.0 | 0.0 | 0.00 | 0.25 | 0.25 | 84 | |
| 20260510013849 | 53 | 95 | 0.0 | 0.0 | 0.00 | 0.25 | 0.25 | 83 | |
| 20260510013327 | 54 | 122 | 0.0 | 0.0 | 0.00 | 0.25 | 0.25 | 83 | |
| 20260510012848 | 54 | 140 | 0.0 | 1.7 | 0.00 | 0.25 | 0.25 | 83 | |
| 20260510012326 | 54 | 140 | 0.0 | 5.2 | 0.00 | 0.25 | 0.25 | 83 | |
| 20260510011826 | 54 | 160 | 0.0 | 3.5 | 0.00 | 0.25 | 0.25 | 82 | |
| 20260510011324 | 54 | 182 | 0.9 | 3.5 | 0.00 | 0.25 | 0.25 | 82 | |
| 20260510010825 | 54 | 122 | 0.0 | 2.6 | 0.00 | 0.25 | 0.25 | 82 | |
| 20260510010344 | 54 | 127 | 0.0 | 0.9 | 0.00 | 0.25 | 0.25 | 81 | |
| 20260510005844 | 54 | 127 | 0.0 | 2.6 | 0.00 | 0.25 | 0.25 | 81 | |
| 20260510005325 | 54 | 127 | 0.0 | 7.0 | 0.00 | 0.25 | 0.25 | 81 | |
| 20260510004846 | 55 | 129 | 2.6 | 7.0 | 0.00 | 0.25 | 0.25 | 81 | |
| 20260510004325 | 55 | 120 | 1.7 | 4.3 | 0.00 | 0.25 | 0.25 | 81 | |
| 20260510003844 | 55 | 150 | 0.0 | 2.6 | 0.00 | 0.25 | 0.25 | 81 | |
| 20260510003323 | 55 | 152 | 0.0 | 5.2 | 0.00 | 0.25 | 0.25 | 81 | |
| 20260510002824 | 55 | 127 | 1.7 | 5.2 | 0.00 | 0.25 | 0.25 | 81 | |
| 20260510002325 | 55 | 168 | 1.7 | 6.1 | 0.00 | 0.25 | 0.25 | 81 | |
| 20260510001824 | 55 | 167 | 0.9 | 6.1 | 0.00 | 0.25 | 0.25 | 81 | |
| 20260510001324 | 55 | 171 | 1.7 | 6.1 | 0.00 | 0.25 | 0.25 | 82 | |
| 20260510000823 | 55 | 75 | 2.6 | 6.1 | 0.00 | 0.25 | 0.25 | 82 | |
| 20260510000323 | 55 | 125 | 0.0 | 0.0 | 0.00 | 0.25 | 0.25 | 82 | |
| 20260509235824 | 55 | 179 | 0.0 | 0.0 | 0.00 | 0.25 | 0.25 | 82 | |
| 20260509235324 | 55 | 116 | 0.0 | 0.0 | 0.00 | 0.25 | 0.25 | 82 | |
| 20260509234823 | 55 | 139 | 0.0 | 0.0 | 0.00 | 0.25 | 0.25 | 82 | |
| 20260509234320 | 55 | 142 | 0.0 | 0.0 | 0.00 | 0.25 | 0.25 | 82 | |
| 20260509233821 | 55 | 124 | 0.0 | 0.0 | 0.00 | 0.25 | 0.25 | 82 | |
| 20260509233321 | 55 | 112 | 0.0 | 0.0 | 0.00 | 0.25 | 0.25 | 81 | |
| 20260509232842 | 55 | 111 | 0.0 | 1.7 | 0.00 | 0.25 | 0.25 | 82 | |
| 20260509232342 | 55 | 129 | 0.0 | 7.0 | 0.00 | 0.25 | 0.25 | 81 | |
| 20260509231821 | 55 | 130 | 2.6 | 7.0 | 0.00 | 0.25 | 0.25 | 81 | |
| 20260509231322 | 55 | 224 | 3.5 | 7.0 | 0.00 | 0.25 | 0.25 | 81 | |
| 20260509230822 | 55 | 226 | 0.0 | 7.8 | 0.00 | 0.25 | 0.25 | 81 | |
| 20260509230320 | 55 | 133 | 1.7 | 7.8 | 0.00 | 0.25 | 0.25 | 81 | |
| 20260509225840 | 55 | 103 | 1.7 | 7.0 | 0.00 | 0.25 | 0.25 | 81 | |
| 20260509225319 | 55 | 152 | 2.6 | 7.8 | 0.00 | 0.25 | 0.25 | 81 | |
| 20260509224820 | 55 | 148 | 3.5 | 9.6 | 0.00 | 0.25 | 0.25 | 81 | |
| 20260509224318 | 55 | 192 | 1.7 | 10.4 | 0.00 | 0.25 | 0.25 | 81 | |
| 20260509223818 | 55 | 145 | 5.2 | 10.4 | 0.00 | 0.25 | 0.25 | 81 | |
| 20260509223318 | 55 | 131 | 4.3 | 6.1 | 0.00 | 0.25 | 0.25 | 81 | |
| 20260509222816 | 55 | 127 | 3.5 | 7.8 | 0.00 | 0.25 | 0.25 | 81 | |
| 20260509222316 | 55 | 137 | 4.3 | 8.7 | 0.00 | 0.25 | 0.25 | 81 | |
| 20260509221815 | 55 | 155 | 4.3 | 9.6 | 0.00 | 0.25 | 0.25 | 81 | |
| 20260509221314 | 55 | 182 | 3.5 | 8.7 | 0.00 | 0.25 | 0.25 | 81 | |
| 20260509220828 | 55 | 165 | 2.6 | 8.7 | 0.00 | 0.25 | 0.25 | 81 | |
| 20260509220329 | 55 | 90 | 4.3 | 8.7 | 0.00 | 0.25 | 0.25 | 82 | |
| 20260509215814 | 55 | 156 | 0.0 | 7.0 | 0.00 | 0.25 | 0.25 | 82 | |
| 20260509215328 | 55 | 175 | 2.6 | 8.7 | 0.00 | 0.25 | 0.25 | 82 | |
| 20260509214848 | 55 | 48 | 4.3 | 8.7 | 0.00 | 0.25 | 0.25 | 82 | |
| 20260509214327 | 55 | 207 | 5.2 | 8.7 | 0.00 | 0.25 | 0.25 | 82 | |
| 20260509213826 | 55 | 121 | 2.6 | 9.6 | 0.00 | 0.25 | 0.25 | 82 | |
| 20260509213347 | 55 | 167 | 3.5 | 12.2 | 0.00 | 0.25 | 0.25 | 82 | |
| 20260509212823 | 54 | 195 | 4.3 | 12.2 | 0.00 | 0.25 | 0.25 | 82 | |
| 20260509212343 | 55 | 118 | 5.2 | 13.0 | 0.00 | 0.25 | 0.25 | 82 | |
| 20260509211823 | 55 | 149 | 7.0 | 13.0 | 0.00 | 0.25 | 0.25 | 82 | |
| 20260509211323 | 55 | 120 | 6.1 | 13.0 | 0.00 | 0.25 | 0.25 | 82 | |
| 20260509210822 | 55 | 154 | 2.6 | 9.6 | 0.00 | 0.25 | 0.25 | 82 | |
| 20260509210321 | 55 | 170 | 4.3 | 8.7 | 0.00 | 0.25 | 0.25 | 82 | |
| 20260509205842 | 55 | 145 | 1.7 | 7.0 | 0.00 | 0.25 | 0.25 | 82 | |
| 20260509205320 | 55 | 217 | 2.6 | 8.7 | 0.00 | 0.25 | 0.25 | 82 | |
| 20260509204820 | 55 | 161 | 2.6 | 9.6 | 0.00 | 0.25 | 0.25 | 82 | |
| 20260509204321 | 55 | 140 | 4.3 | 9.6 | 0.00 | 0.25 | 0.25 | 81 | |
| 20260509203821 | 55 | 141 | 0.9 | 7.8 | 0.00 | 0.25 | 0.25 | 82 | |
| 20260509203320 | 55 | 135 | 3.5 | 7.8 | 0.00 | 0.25 | 0.25 | 82 | |
| 20260509202821 | 54 | 137 | 3.5 | 12.2 | 0.00 | 0.25 | 0.25 | 83 | |
| 20260509202321 | 54 | 124 | 5.2 | 12.2 | 0.00 | 0.25 | 0.25 | 83 | |
| 20260509201822 | 54 | 147 | 4.3 | 10.4 | 0.00 | 0.25 | 0.25 | 84 | |
| 20260509201320 | 54 | 126 | 5.2 | 10.4 | 0.00 | 0.25 | 0.25 | 84 | |
| 20260509200821 | 53 | 141 | 5.2 | 10.4 | 0.00 | 0.25 | 0.25 | 85 | |
| 20260509200341 | 53 | 97 | 3.5 | 7.8 | 0.00 | 0.25 | 0.25 | 85 | |
| 20260509195819 | 53 | 143 | 2.6 | 8.7 | 0.00 | 0.25 | 0.25 | 85 | |
| 20260509195320 | 53 | 185 | 2.6 | 8.7 | 0.00 | 0.25 | 0.25 | 85 | |
| 20260509194819 | 53 | 112 | 4.3 | 9.6 | 0.00 | 0.25 | 0.25 | 85 | |
| 20260509194318 | 53 | 149 | 3.5 | 11.3 | 0.00 | 0.25 | 0.25 | 85 | |
| 20260509193816 | 53 | 90 | 6.1 | 11.3 | 0.00 | 0.25 | 0.25 | 85 | |
| 20260509193318 | 53 | 147 | 5.2 | 11.3 | 0.00 | 0.25 | 0.25 | 85 | |
| 20260509192815 | 53 | 151 | 3.5 | 13.9 | 0.00 | 0.25 | 0.25 | 85 | |
| 20260509192333 | 53 | 152 | 7.0 | 13.9 | 0.00 | 0.25 | 0.25 | 85 | |
| 20260509191854 | 53 | 133 | 6.1 | 13.9 | 0.00 | 0.25 | 0.25 | 85 | |
| 20260509191332 | 53 | 116 | 6.1 | 13.9 | 0.00 | 0.25 | 0.25 | 85 | |
| 20260509190832 | 53 | 144 | 5.2 | 11.3 | 0.00 | 0.25 | 0.25 | 85 | |
| 20260509190330 | 53 | 145 | 4.3 | 11.3 | 0.00 | 0.25 | 0.25 | 85 | |
| 20260509185832 | 53 | 42 | 6.1 | 12.2 | 0.00 | 0.25 | 0.25 | 85 | |
| 20260509185352 | 53 | 162 | 3.5 | 9.6 | 0.00 | 0.25 | 0.25 | 85 | |
| 20260509184831 | 53 | 149 | 4.3 | 10.4 | 0.00 | 0.25 | 0.25 | 85 | |
| 20260509184351 | 53 | 134 | 6.1 | 14.8 | 0.00 | 0.25 | 0.25 | 85 | |
| 20260509183831 | 53 | 121 | 4.3 | 14.8 | 0.00 | 0.25 | 0.25 | 85 | |
| 20260509183330 | 53 | 166 | 4.3 | 7.8 | 0.00 | 0.25 | 0.25 | 85 | |
| 20260509182830 | 53 | 112 | 2.6 | 9.6 | 0.00 | 0.25 | 0.25 | 85 | |
| 20260509182330 | 53 | 87 | 5.2 | 10.4 | 0.00 | 0.25 | 0.25 | 85 | |
| 20260509181829 | 53 | 143 | 3.5 | 9.6 | 0.00 | 0.25 | 0.25 | 85 | |
| 20260509181348 | 53 | 153 | 1.7 | 7.0 | 0.00 | 0.25 | 0.25 | 86 | |
| 20260509180827 | 53 | 203 | 1.7 | 7.0 | 0.00 | 0.25 | 0.25 | 85 | |
| 20260509180329 | 53 | 100 | 0.9 | 6.1 | 0.00 | 0.25 | 0.25 | 86 | |
| 20260509175827 | 53 | 180 | 0.9 | 6.1 | 0.00 | 0.25 | 0.25 | 86 | |
| 20260509175326 | 53 | 143 | 0.0 | 4.3 | 0.00 | 0.25 | 0.25 | 87 | |
| 20260509174845 | 53 | 172 | 0.0 | 4.3 | 0.00 | 0.25 | 0.25 | 87 | |
| 20260509174326 | 53 | 120 | 0.0 | 4.3 | 0.00 | 0.25 | 0.25 | 88 | |
| 20260509173848 | 53 | 120 | 0.0 | 8.7 | 0.00 | 0.25 | 0.25 | 88 | |
| 20260509173326 | 52 | 131 | 1.7 | 8.7 | 0.00 | 0.25 | 0.25 | 88 | |
| 20260509172825 | 52 | 131 | 0.0 | 5.2 | 0.00 | 0.25 | 0.25 | 88 | |
| 20260509172324 | 52 | 135 | 0.0 | 7.0 | 0.00 | 0.25 | 0.25 | 88 | |
| 20260509171825 | 52 | 129 | 3.5 | 7.8 | 0.01 | 0.25 | 0.25 | 88 | |
| 20260509171327 | 52 | 133 | 2.6 | 9.6 | 0.01 | 0.25 | 0.25 | 89 | |
| 20260509170827 | 52 | 100 | 2.6 | 7.8 | 0.01 | 0.25 | 0.25 | 89 | |
| 20260509170327 | 52 | 116 | 3.5 | 9.6 | 0.01 | 0.25 | 0.25 | 90 | |
| 20260509165828 | 51 | 119 | 5.2 | 9.6 | 0.01 | 0.25 | 0.25 | 90 | |
| 20260509165327 | 51 | 114 | 4.3 | 9.6 | 0.02 | 0.25 | 0.25 | 90 | |
| 20260509164842 | 51 | 110 | 3.5 | 11.3 | 0.02 | 0.25 | 0.25 | 91 | |
| 20260509164323 | 51 | 117 | 4.3 | 11.3 | 0.02 | 0.25 | 0.25 | 91 | |
| 20260509163842 | 51 | 58 | 2.6 | 7.0 | 0.03 | 0.25 | 0.25 | 91 | |
| 20260509163322 | 51 | 118 | 4.3 | 10.4 | 0.03 | 0.25 | 0.25 | 92 | |
| 20260509162822 | 51 | 81 | 3.5 | 8.7 | 0.04 | 0.28 | 0.25 | 92 | |
| 20260509162321 | 51 | 156 | 3.5 | 11.3 | 0.04 | 0.28 | 0.25 | 92 | |
| 20260509161821 | 51 | 112 | 1.7 | 6.1 | 0.04 | 0.27 | 0.24 | 93 | |
| 20260509161319 | 51 | 127 | 0.0 | 0.0 | 0.04 | 0.27 | 0.24 | 93 | |
| 20260509160820 | 51 | 127 | 0.0 | 0.9 | 0.04 | 0.27 | 0.24 | 93 | |
| 20260509160320 | 50 | 129 | 0.0 | 2.6 | 0.05 | 0.27 | 0.24 | 93 | |
| 20260509155819 | 50 | 66 | 0.0 | 2.6 | 0.06 | 0.27 | 0.24 | 94 | |
| 20260509155318 | 50 | 110 | 0.0 | 0.0 | 0.05 | 0.26 | 0.23 | 94 | |
| 20260509154817 | 50 | 110 | 0.0 | 0.0 | 0.05 | 0.26 | 0.23 | 93 | |
| 20260509154318 | 50 | 30 | 0.0 | 0.0 | 0.05 | 0.26 | 0.23 | 94 | |
| 20260509153816 | 50 | 27 | 0.0 | 0.0 | 0.05 | 0.25 | 0.22 | 94 | |
| 20260509153316 | 50 | 27 | 0.0 | 0.0 | 0.05 | 0.25 | 0.22 | 94 | |
| 20260509152815 | 50 | 27 | 0.0 | 0.0 | 0.04 | 0.28 | 0.21 | 94 | |
| 20260509152314 | 50 | 27 | 0.0 | 0.0 | 0.04 | 0.28 | 0.21 | 95 | |
| 20260509151814 | 50 | 27 | 0.0 | 0.0 | 0.04 | 0.27 | 0.20 | 95 | |
| 20260509151333 | 50 | 27 | 0.0 | 0.0 | 0.04 | 0.27 | 0.20 | 95 | |
| 20260509150833 | 49 | 27 | 0.0 | 0.0 | 0.03 | 0.26 | 0.19 | 95 | |
| 20260509150353 | 49 | 27 | 0.0 | 0.0 | 0.04 | 0.26 | 0.19 | 94 | |
| 20260509145850 | 49 | 39 | 0.0 | 0.0 | 0.03 | 0.25 | 0.18 | 95 | |
| 20260509145329 | 49 | 41 | 0.0 | 0.0 | 0.03 | 0.25 | 0.18 | 95 | |
| 20260509144828 | 48 | 41 | 0.0 | 0.0 | 0.04 | 0.25 | 0.18 | 95 | |
| 20260509144327 | 48 | 68 | 0.0 | 0.0 | 0.04 | 0.25 | 0.18 | 95 | |
| 20260509143826 | 48 | 68 | 0.0 | 0.0 | 0.03 | 0.24 | 0.17 | 95 | |
| 20260509143346 | 48 | 71 | 0.0 | 0.0 | 0.03 | 0.24 | 0.17 | 95 | |
| 20260509142824 | 47 | 73 | 0.0 | 0.0 | 0.04 | 0.25 | 0.17 | 95 | |
| 20260509142322 | 47 | 73 | 0.0 | 0.0 | 0.03 | 0.24 | 0.16 | 95 | |
| 20260509141821 | 46 | 73 | 0.0 | 0.0 | 0.03 | 0.24 | 0.16 | 95 | |
| 20260509141320 | 46 | 73 | 0.0 | 0.0 | 0.03 | 0.24 | 0.16 | 95 | |
| 20260509140819 | 46 | 73 | 0.0 | 0.0 | 0.03 | 0.24 | 0.16 | 94 | |
| 20260509140338 | 45 | 73 | 0.0 | 0.0 | 0.02 | 0.23 | 0.15 | 95 | |
| 20260509135815 | 45 | 76 | 0.0 | 0.0 | 0.03 | 0.23 | 0.15 | 95 | |
| 20260509135335 | 45 | 77 | 0.0 | 0.0 | 0.03 | 0.23 | 0.15 | 95 | |
| 20260509134814 | 45 | 76 | 0.0 | 0.0 | 0.02 | 0.22 | 0.14 | 95 | |
| 20260509134333 | 44 | 77 | 0.0 | 0.0 | 0.02 | 0.22 | 0.14 | 95 | |
| 20260509133832 | 44 | 77 | 0.0 | 0.0 | 0.02 | 0.22 | 0.14 | 95 | |
| 20260509133331 | 44 | 77 | 0.0 | 0.0 | 0.03 | 0.22 | 0.14 | 94 | |
| 20260509132832 | 43 | 77 | 0.0 | 0.0 | 0.02 | 0.21 | 0.13 | 94 | |
| 20260509132333 | 43 | 77 | 0.0 | 0.0 | 0.03 | 0.21 | 0.13 | 94 | |
| 20260509131813 | 43 | 77 | 0.0 | 0.0 | 0.04 | 0.21 | 0.13 | 94 | |
| 20260509131332 | 43 | 77 | 0.0 | 0.0 | 0.05 | 0.21 | 0.13 | 94 | |
| 20260509130833 | 43 | 77 | 0.0 | 0.0 | 0.05 | 0.21 | 0.13 | 94 | |
| 20260509130354 | 42 | 77 | 0.0 | 0.0 | 0.06 | 0.21 | 0.13 | 94 | |
| 20260509125834 | 42 | 77 | 0.0 | 0.0 | 0.06 | 0.20 | 0.12 | 94 | |
| 20260509125354 | 42 | 77 | 0.0 | 0.0 | 0.06 | 0.20 | 0.12 | 94 | |
| 20260509124832 | 42 | 77 | 0.0 | 0.0 | 0.06 | 0.20 | 0.12 | 94 | |
| 20260509124333 | 42 | 77 | 0.0 | 0.0 | 0.06 | 0.20 | 0.12 | 94 | |
| 20260509123832 | 42 | 77 | 0.0 | 0.0 | 0.07 | 0.20 | 0.12 | 94 | |
| 20260509123331 | 41 | 77 | 0.0 | 0.0 | 0.06 | 0.19 | 0.11 | 94 | |
| 20260509122832 | 41 | 76 | 0.0 | 0.0 | 0.06 | 0.19 | 0.11 | 93 | |
| 20260509122322 | 41 | 76 | 0.0 | 0.0 | 0.06 | 0.18 | 0.10 | 93 | |
| 20260509121821 | 41 | 76 | 0.0 | 0.0 | 0.05 | 0.17 | 0.09 | 93 | |
| 20260509121320 | 41 | 76 | 0.0 | 0.0 | 0.04 | 0.16 | 0.08 | 94 | |
| 20260509120819 | 41 | 76 | 0.0 | 0.0 | 0.04 | 0.16 | 0.08 | 93 | |
| 20260509120318 | 41 | 76 | 0.0 | 0.0 | 0.03 | 0.15 | 0.07 | 93 | |
| 20260509115819 | 41 | 76 | 0.0 | 0.0 | 0.02 | 0.14 | 0.06 | 94 | |
| 20260509115319 | 41 | 76 | 0.0 | 0.0 | 0.02 | 0.14 | 0.06 | 93 | |
| 20260509114818 | 41 | 76 | 0.0 | 0.0 | 0.02 | 0.14 | 0.06 | 93 | |
| 20260509114318 | 40 | 76 | 0.0 | 0.0 | 0.01 | 0.13 | 0.05 | 93 | |
| 20260509113817 | 40 | 76 | 0.0 | 0.0 | 0.01 | 0.13 | 0.05 | 93 | |
| 20260509113317 | 40 | 76 | 0.0 | 0.0 | 0.01 | 0.13 | 0.05 | 93 | |
| 20260509112836 | 40 | 76 | 0.0 | 0.0 | 0.01 | 0.13 | 0.05 | 93 | |
| 20260509112316 | 40 | 76 | 0.0 | 0.0 | 0.00 | 0.12 | 0.04 | 93 | |
| 20260509111817 | 40 | 76 | 0.0 | 0.0 | 0.00 | 0.12 | 0.04 | 93 | |
| 20260509111318 | 40 | 76 | 0.0 | 0.0 | 0.00 | 0.12 | 0.04 | 93 | |
| 20260509110818 | 39 | 76 | 0.0 | 0.0 | 0.00 | 0.12 | 0.04 | 93 | |
| 20260509110317 | 39 | 76 | 0.0 | 0.0 | 0.00 | 0.12 | 0.04 | 93 | |
| 20260509105837 | 39 | 76 | 0.0 | 2.6 | 0.00 | 0.12 | 0.04 | 93 | |
| 20260509105316 | 39 | 77 | 0.0 | 2.6 | 0.00 | 0.12 | 0.04 | 93 | |
| 20260509104832 | 39 | 33 | 0.0 | 0.0 | 0.00 | 0.12 | 0.04 | 93 | |
| 20260509104330 | 39 | 33 | 0.0 | 0.0 | 0.00 | 0.12 | 0.04 | 92 | |
| 20260509103828 | 39 | 32 | 0.0 | 0.0 | 0.00 | 0.12 | 0.04 | 93 | |
| 20260509103327 | 39 | 31 | 0.0 | 0.0 | 0.00 | 0.12 | 0.04 | 92 | |
| 20260509102827 | 39 | 31 | 0.0 | 0.0 | 0.00 | 0.12 | 0.04 | 92 | |
| 20260509102328 | 39 | 49 | 0.0 | 0.0 | 0.00 | 0.12 | 0.04 | 92 | |
| 20260509101829 | 39 | 52 | 0.0 | 0.0 | 0.00 | 0.12 | 0.04 | 92 | |
| 20260509101327 | 39 | 51 | 0.0 | 0.0 | 0.00 | 0.12 | 0.04 | 92 | |
| 20260509100826 | 39 | 53 | 0.0 | 0.0 | 0.00 | 0.12 | 0.04 | 92 | |
| 20260509100326 | 39 | 52 | 0.0 | 0.0 | 0.00 | 0.12 | 0.04 | 92 | |
| 20260509095827 | 39 | 63 | 0.0 | 0.0 | 0.00 | 0.12 | 0.04 | 91 | |
| 20260509095327 | 39 | 62 | 0.0 | 0.0 | 0.00 | 0.12 | 0.04 | 92 | |
| 20260509094827 | 39 | 56 | 0.0 | 0.0 | 0.00 | 0.12 | 0.04 | 92 | |
| 20260509094325 | 39 | 56 | 0.0 | 0.0 | 0.01 | 0.12 | 0.04 | 91 | |
| 20260509093825 | 39 | 56 | 0.0 | 0.0 | 0.01 | 0.12 | 0.04 | 91 | |
| 20260509093324 | 38 | 56 | 0.0 | 0.0 | 0.01 | 0.12 | 0.04 | 91 | |
| 20260509092824 | 38 | 56 | 0.0 | 0.0 | 0.01 | 0.12 | 0.04 | 91 | |
| 20260509092324 | 38 | 56 | 0.0 | 2.6 | 0.01 | 0.12 | 0.04 | 91 | |
| 20260509091845 | 38 | 56 | 0.0 | 2.6 | 0.01 | 0.12 | 0.04 | 91 | |
| 20260509091323 | 38 | 75 | 0.0 | 0.0 | 0.01 | 0.12 | 0.04 | 90 | |
| 20260509090824 | 38 | 75 | 0.0 | 0.0 | 0.02 | 0.12 | 0.04 | 90 | |
| 20260509090325 | 38 | 75 | 0.0 | 0.0 | 0.02 | 0.12 | 0.04 | 90 | |
| 20260509085824 | 38 | 75 | 0.0 | 0.0 | 0.02 | 0.12 | 0.04 | 90 | |
| 20260509085323 | 38 | 75 | 0.0 | 2.6 | 0.02 | 0.12 | 0.04 | 90 | |
| 20260509084822 | 38 | 75 | 0.0 | 2.6 | 0.03 | 0.12 | 0.04 | 90 | |
| 20260509084321 | 38 | 72 | 0.0 | 0.0 | 0.02 | 0.11 | 0.03 | 89 | |
| 20260509083841 | 38 | 72 | 0.0 | 0.0 | 0.02 | 0.11 | 0.03 | 89 | |
| 20260509083319 | 38 | 72 | 0.0 | 0.0 | 0.03 | 0.11 | 0.03 | 89 | |
| 20260509082819 | 38 | 72 | 0.0 | 0.0 | 0.03 | 0.11 | 0.03 | 89 | |
| 20260509082319 | 38 | 70 | 0.0 | 1.7 | 0.03 | 0.11 | 0.03 | 88 | |
| 20260509081830 | 38 | 70 | 0.9 | 1.7 | 0.03 | 0.11 | 0.03 | 88 | |
| 20260509081328 | 38 | 71 | 0.0 | 2.6 | 0.03 | 0.11 | 0.03 | 88 | |
| 20260509080829 | 38 | 71 | 0.0 | 3.5 | 0.02 | 0.10 | 0.02 | 88 | |
| 20260509080328 | 38 | 79 | 0.9 | 3.5 | 0.02 | 0.10 | 0.02 | 87 | |
| 20260509075848 | 38 | 45 | 0.9 | 2.6 | 0.02 | 0.10 | 0.02 | 87 | |
| 20260509075345 | 38 | 15 | 0.0 | 2.6 | 0.02 | 0.10 | 0.02 | 87 | |
| 20260509074824 | 38 | 4 | 0.0 | 3.5 | 0.01 | 0.09 | 0.01 | 86 | |
| 20260509074325 | 38 | 4 | 0.9 | 3.5 | 0.01 | 0.09 | 0.01 | 86 | |
| 20260509073825 | 38 | 52 | 0.0 | 3.5 | 0.00 | 0.08 | 0.00 | 86 | |
| 20260509073324 | 38 | 71 | 0.0 | 4.3 | 0.00 | 0.08 | 0.00 | 86 | |
| 20260509072823 | 38 | 79 | 0.9 | 4.3 | 0.00 | 0.08 | 0.00 | 86 | |
| 20260509072325 | 38 | 25 | 0.0 | 0.0 | 0.00 | 0.08 | 0.00 | 85 | |
| 20260509071828 | 38 | 31 | 0.0 | 0.0 | 0.00 | 0.08 | 0.00 | 85 | |
| 20260509071326 | 39 | 39 | 0.0 | 0.0 | 0.00 | 0.08 | 0.00 | 85 | |
| 20260509070826 | 39 | 39 | 0.0 | 0.0 | 0.00 | 0.08 | 0.00 | 85 | |
| 20260509070345 | 39 | 38 | 0.0 | 0.0 | 0.00 | 0.08 | 0.00 | 85 | |
| 20260509065823 | 38 | 46 | 0.0 | 0.0 | 0.00 | 0.08 | 0.00 | 85 | |
| 20260509065342 | 38 | 50 | 0.0 | 0.0 | 0.00 | 0.08 | 0.00 | 84 | |
| 20260509064820 | 38 | 60 | 0.0 | 0.0 | 0.00 | 0.08 | 0.00 | 84 | |
| 20260509064321 | 38 | 10 | 0.0 | 0.0 | 0.00 | 0.08 | 0.00 | 84 | |
| 20260509063822 | 38 | 10 | 0.0 | 0.0 | 0.00 | 0.08 | 0.00 | 84 | |
| 20260509063323 | 38 | 9 | 0.0 | 0.0 | 0.00 | 0.08 | 0.00 | 84 | |
| 20260509062844 | 38 | 10 | 0.0 | 0.0 | 0.00 | 0.08 | 0.00 | 84 | |
| 20260509062322 | 38 | 9 | 0.0 | 0.0 | 0.00 | 0.08 | 0.00 | 84 | |
| 20260509061822 | 38 | 9 | 0.0 | 0.0 | 0.00 | 0.08 | 0.00 | 84 | |
| 20260509061324 | 38 | 11 | 0.0 | 0.0 | 0.00 | 0.08 | 0.00 | 84 | |
| 20260509060823 | 38 | 10 | 0.0 | 0.0 | 0.00 | 0.08 | 0.00 | 84 | |
| 20260509060323 | 38 | 10 | 0.0 | 0.0 | 0.00 | 0.08 | 0.00 | 83 | |
| 20260509055843 | 38 | 11 | 0.0 | 0.0 | 0.00 | 0.08 | 0.00 | 83 | |
| 20260509055322 | 38 | 11 | 0.0 | 0.0 | 0.00 | 0.08 | 0.00 | 83 |